Location: Unspecified
(0.0000°N, 0.0000°E)
Time: 03:28:00
(UTC+00:00)

Vanguard 2 Rocket - All Passes

Search period start: 30 July 2016 00:00
Search period end: 09 August 2016 00:00
Orbit: 555 x 3328 km, 32.9° (Epoch: 29 July)

Date Brightness Start Highest point End Pass type
(mag) Time Alt. Az. Time Alt. Az. Time Alt. Az.
30 Jul - 00:02:43 10° W 00:20:12 36° NW 00:33:51 10° NNE visible
30 Jul - 02:35:27 10° NW 02:39:45 11° NNW 02:43:33 10° N visible
30 Jul - 09:26:26 10° NW 09:30:36 87° NNE 09:34:39 10° SE daylight
30 Jul - 16:18:59 10° SSE 16:20:53 10° SSE 16:22:54 10° SSE daylight
30 Jul - 18:27:08 10° SSW 18:40:11 35° SE 18:57:16 10° E visible
30 Jul - 20:40:48 10° SW 20:59:02 80° SE 21:18:58 10° ENE visible
30 Jul - 22:59:14 10° WSW 23:18:17 48° NW 23:34:32 10° NE visible
31 Jul - 01:26:57 10° WNW 01:37:56 18° NNW 01:46:41 10° NNE visible
31 Jul - 08:27:23 10° NW 08:31:49 38° NNE 08:35:29 10° ESE daylight
31 Jul - 10:42:11 10° WSW 10:44:43 16° SSW 10:47:28 10° S daylight
31 Jul - 17:28:37 10° SSW 17:38:40 24° SSE 17:52:03 10° E daylight
31 Jul - 19:40:49 10° SW 19:57:04 63° SE 20:17:10 10° ENE visible
31 Jul - 21:57:01 10° WSW 22:16:10 63° NW 22:34:36 10° NE visible
01 Aug - 00:20:43 10° W 00:35:55 26° NNW 00:48:09 10° NNE visible
01 Aug - 07:28:22 10° NNW 07:32:39 22° NNE 07:36:00 10° ENE daylight
01 Aug - 09:41:59 10° W 09:45:44 32° SW 09:49:23 10° SSE daylight
01 Aug - 16:31:08 10° S 16:37:20 15° SSE 16:45:04 10° ESE daylight
01 Aug - 18:41:28 10° SSW 18:55:24 47° SE 19:14:18 10° ENE visible
01 Aug - 20:55:52 10° WSW 21:14:01 79° NW 21:34:00 10° NE visible
01 Aug - 23:16:11 10° W 23:33:45 36° NNW 23:48:55 10° NNE visible
02 Aug - 01:47:07 10° NW 01:54:39 14° NNW 02:00:59 10° N visible
02 Aug - 06:29:16 10° NNW 06:33:03 15° NNE 06:36:03 10° NE daylight
02 Aug - 08:42:12 10° WNW 08:47:00 77° SW 08:50:55 10° SE daylight
02 Aug - 17:42:44 10° SSW 17:54:08 34° SE 18:10:14 10° E daylight
02 Aug - 19:55:35 10° SW 20:11:59 83° SE 20:32:39 10° ENE visible
02 Aug - 22:13:10 10° WSW 22:31:27 47° NNW 22:49:06 10° NE visible
03 Aug - 00:39:47 10° WNW 00:52:17 20° NNW 01:02:35 10° NNE visible
03 Aug - 05:29:56 10° N 05:32:57 12° NNE 05:35:32 10° NE visible
03 Aug - 07:42:32 10° NW 07:48:09 50° NNE 07:52:10 10° ESE daylight
03 Aug - 09:59:01 10° WSW 10:00:56 13° SSW 10:02:49 10° S daylight
03 Aug - 16:44:43 10° S 16:53:10 22° SE 17:04:46 10° E daylight
03 Aug - 18:56:01 10° SW 19:10:20 64° SE 19:30:25 10° ENE visible
03 Aug - 21:11:26 10° WSW 21:29:08 61° NW 21:48:41 10° NE visible
03 Aug - 23:34:08 10° WNW 23:49:45 27° NNW 00:03:21 10° NNE visible
04 Aug - 02:06:55 10° NNW 02:11:52 12° NNW 02:16:13 10° N visible
04 Aug - 04:29:54 10° N 04:32:21 11° N 04:34:32 10° NNE visible
04 Aug - 06:42:45 10° NNW 06:48:53 30° NNE 06:53:05 10° E daylight
04 Aug - 08:57:56 10° W 09:02:02 28° SW 09:05:29 10° SSE daylight
04 Aug - 15:48:16 10° S 15:52:23 12° SSE 15:57:18 10° SE daylight
04 Aug - 17:57:03 10° SSW 18:09:09 47° SE 18:27:14 10° ENE visible
04 Aug - 20:10:43 10° WSW 20:27:00 77° NW 20:47:37 10° NE visible
04 Aug - 22:30:09 10° W 22:47:10 36° NNW 23:03:31 10° NNE visible
05 Aug - 00:59:28 10° NW 01:09:17 16° NNW 01:17:32 10° NNE visible
05 Aug - 03:28:06 10° NNW 03:31:08 11° N 03:33:51 10° NNE visible
05 Aug - 05:42:44 10° NNW 05:49:08 22° NNE 05:53:36 10° ENE visible
05 Aug - 07:57:31 10° WNW 08:03:20 66° SW 08:07:25 10° SE daylight
05 Aug - 16:58:41 10° SSW 17:08:25 32° SE 17:22:58 10° E daylight
05 Aug - 19:10:49 10° SW 19:25:13 85° SE 19:45:51 10° NE visible
05 Aug - 21:27:39 10° W 21:44:37 46° NNW 22:03:10 10° NE visible
05 Aug - 23:53:02 10° WNW 00:06:24 21° NNW 00:18:04 10° NNE visible
06 Aug - 02:24:03 10° NNW 02:29:15 12° N 02:33:44 10° NNE visible
06 Aug - 04:42:17 10° NNW 04:48:52 18° NNE 04:53:41 10° ENE visible
06 Aug - 06:57:10 10° NW 07:04:23 63° NNE 07:08:56 10° ESE daylight
06 Aug - 09:15:21 10° WSW 09:17:03 12° SW 09:18:39 10° SSW daylight
06 Aug - 16:01:07 10° S 16:08:00 20° SE 16:17:29 10° ESE daylight
06 Aug - 18:11:35 10° SW 18:23:59 65° SE 18:43:18 10° ENE visible
06 Aug - 20:26:21 10° WSW 20:42:17 58° NNW 21:02:15 10° NE visible
06 Aug - 22:48:03 10° WNW 23:03:26 27° NNW 23:18:04 10° NNE visible
07 Aug - 01:18:27 10° NW 01:26:42 14° N 01:33:42 10° NNE visible
07 Aug - 03:41:06 10° NNW 03:48:01 16° N 03:53:17 10° NE visible
07 Aug - 05:56:42 10° NW 06:05:00 40° NNE 06:10:05 10° E daylight
07 Aug - 08:13:23 10° W 08:18:14 28° SW 08:21:54 10° SSE daylight
07 Aug - 17:12:55 10° SSW 17:23:18 46° SE 17:39:57 10° ENE daylight
07 Aug - 19:26:01 10° WSW 19:40:18 73° NW 20:00:46 10° NE visible
07 Aug - 21:44:38 10° W 22:00:34 34° NNW 22:17:37 10° NNE visible
08 Aug - 00:12:19 10° NW 00:23:39 17° NNW 00:33:31 10° NNE visible
08 Aug - 02:38:54 10° NNW 02:46:30 15° N 02:52:29 10° NE visible
08 Aug - 04:55:57 10° NNW 05:05:02 29° NNE 05:10:49 10° E visible
08 Aug - 07:12:18 10° WNW 07:19:30 61° SW 07:24:03 10° SE daylight
08 Aug - 16:14:53 10° SSW 16:23:06 30° SE 16:35:42 10° E daylight
08 Aug - 18:26:27 10° SW 18:38:53 88° SE 18:58:40 10° NE visible
08 Aug - 20:42:36 10° W 20:57:57 43° NNW 21:16:43 10° NE visible
08 Aug - 23:06:46 10° WNW 23:20:21 21° NNW 23:33:03 10° NNE visible
